Content
SEND FEEDBACK

Daily
Averages
Monthly
Summary
United States of America

SANDUSKY, OHIO


Home > North America > United States > Ohio
Elevation: 629 feet     Latitude: 41 27N     Longitude: 082 43W

WEATHER
 
SELECT A DAY
Number of Records: 185,565;   Date Range: 10/8/98 - 12/19/14
 
SHARE

PRINT THIS DATA

[ ← Previous Day ]
WEATHER ALMANAC - JULY 22, 2014
[ Next Day → ]
[ °C ]   °F
Weather ElementAverageHighLow
Temperature80 °F91 °F (3:53 pm)66 °F (3:53 am)
Dewpoint64.5 °F69.1 °F (10:53 am)59 °F (1:53 am)
Humidity61 %81 % (3:53 am)42 % (5:53 pm)
Barometer30.06 in30.13 in (7:53 am)29.97 in (11:53 pm)
Wind Speed6.2 mph12.7 mph (11:53 am)
Weather ElementAverage
Visibility9.7 mi
Wind DirectionSSE (165 °)

Weather ElementTotal
Precipitation---
Cooling Degree Days13.5 (Base 65)
Growing Degree Days28.5 (Base 50)
Averaged from 22 records on July 22, 2014
WEATHER CONDITIONS BREAKOUT
WIND DIRECTION BREAKOUT
WEATHER BY HOUR - JULY 22, 2014
[ °C ]   °F
Local TimeTemperatureDewpointHumidityBarometerVisibilityWind DirectionWind SpeedGust SpeedPrecipitationEventsConditions
1:53 AM69.1 °F59.0 °F70 %30.12 in10.0 miCalmClear
2:53 AM66.9 °F59.0 °F76 %30.11 in10.0 miCalmClear
3:53 AM66.0 °F60.1 °F81 %30.11 in10.0 miCalmClear
4:53 AM66.0 °F59.0 °F78 %30.11 in10.0 miCalmClear
5:53 AM66.9 °F59.0 °F76 %30.12 in10.0 miCalmClear
6:53 AM66.9 °F60.1 °F79 %30.12 in8.0 miCalmClear
7:53 AM72.0 °F64.0 °F76 %30.13 in7.0 miSSW (200°)4.6 mphClear
8:53 AM75.9 °F66.0 °F71 %30.13 in8.0 miSouth (170°)4.6 mphClear
10:53 AM84.9 °F69.1 °F59 %30.10 in10.0 miSW (220°)5.8 mphClear
11:53 AM87.1 °F66.9 °F51 %30.08 in10.0 miWSW (240°)12.7 mphMostly Cloudy
12:53 PM88.0 °F66.0 °F48 %30.06 in10.0 miWest (260°)10.4 mphScattered Clouds
1:53 PM89.1 °F66.0 °F46 %30.05 in10.0 miWest (270°)8.1 mphPartly Cloudy
2:53 PM90.0 °F66.0 °F45 %30.04 in10.0 miSW (220°)9.2 mphPartly Cloudy
3:53 PM91.0 °F66.0 °F44 %30.03 in10.0 miSW (230°)10.4 mphScattered Clouds
4:53 PM91.0 °F66.0 °F44 %30.01 in10.0 miWSW (240°)12.7 mphClear
5:53 PM91.0 °F64.9 °F42 %30.01 in10.0 miWSW (250°)12.7 mphPartly Cloudy
6:53 PM90.0 °F64.9 °F43 %29.99 in10.0 miWSW (240°)11.5 mphClear
7:53 PM87.1 °F66.9 °F51 %29.99 in10.0 miSW (220°)8.1 mphClear
8:53 PM84.0 °F66.9 °F56 %29.98 in10.0 miSSW (210°)5.8 mphClear
9:53 PM81.0 °F66.9 °F62 %29.98 in10.0 miSSW (210°)6.9 mphClear
10:53 PM78.1 °F68.0 °F71 %29.98 in10.0 miSW (230°)6.9 mphClear
11:53 PM77.0 °F68.0 °F74 %29.97 in10.0 miSW (220°)5.8 mphClear
Hourly data recorded from KLPR, located miles away from Sandusky, Ohio







STORIES FROM OUR PARTNERS